Location: Be?chatów
(51.3665°N, 19.3745°E)
Time: 17:53:26
(UTC+00:00)

NOSS 2-3 (D) - Pass Details

Date: 19 May 2025
Orbit: 497 x 1701 km, 63.3° (Epoch: 24 April)

Event Time Altitude Azimuth Distance (km) Brightness Sun altitude
Rises 19:16:40 0° 240° (WSW) 2,580 7.0 -6.1°
Reaches altitude 10° 19:18:47 10° 247° (WSW) 1,705 6.2 -6.3°
Maximum altitude 19:22:22 48° 323° (NW) 695 4.4 -6.7°
Drops below altitude 10° 19:26:27 10° 39° (NE) 1,935 6.2 -7.2°
Sets 19:28:59 0° 45° (NE) 2,978 7.1 -7.5°
